QPF
0.00 0.00 0.00 0.00 0.01 0.05 0.01 0.01 0.02 0.01 0.00 0.00 0.00 0.00 0.00 0.00 0.00 0.00 0.00 0.00 0.00 0.00 0.00 0.00 0.01 0.01 0.02 0.00 0.00 0.00 0.00 0.00 0.01 0.00 0.00 0.00 0.00 0.00 0.01 0.04 0.02 0.03 0.01 0.01 0.01 0.00 0.00 0.00 0.00
0.00 0.00 0.02 0.04 0.01 0.00 0.01 0.02 0.09 0.01 0.00 0.00 0.00 0.00 0.00 0.00 0.00 0.00 0.00 0.00 0.00 0.00 0.00 0.00 0.02 0.03 0.00 0.00 0.00 0.00 0.00 0.00 0.00 0.00 0.02 0.00 0.00 0.00 0.00 0.01 0.04 0.06 0.00 0.01 0.01 0.00 0.00 0.02 0.03
0.00 0.00 0.02 0.01 0.00 0.00 0.03 0.04 0.05 0.02 0.00 0.00 0.00 0.00 0.00 0.00 0.00 0.00 0.00 0.00 0.00 0.00 0.00 0.00 0.01 0.02 0.00 0.00 0.00 0.00 0.00 0.02 0.00 0.01 0.02 0.00 0.00 0.00 0.00 0.00 0.01 0.01 0.02 0.01 0.00 0.00 0.01 0.05 0.05
0.00 0.00 0.00 0.01 0.00 0.00 0.01 0.03 0.03 0.00 0.00 0.01 0.01 0.00 0.00 0.00 0.00 0.00 0.00 0.00 0.00 0.00 0.00 0.00 0.00 0.01 0.00 0.00 0.00 0.00 0.00 0.00 0.00 0.06 0.09 0.07 0.01 0.00 0.03 0.16 0.05 0.02 0.02 0.01 0.00 0.00 0.00 0.01 0.04
0.00 0.00 0.00 0.00 0.00 0.00 0.00 0.00 0.01 0.02 0.00 0.00 0.00 0.03 0.02 0.00 0.00 0.00 0.00 0.00 0.00 0.00 0.00 0.00 0.01 0.01 0.00 0.02 0.01 0.00 0.01 0.00 0.00 0.07 0.06 0.07 0.04 0.00 0.01 0.06 0.02 0.01 0.02 0.00 0.00 0.00 0.00 0.01 0.00
0.00 0.00 0.00 0.00 0.00 0.00 0.01 0.07 0.09 0.14 0.06 0.05 0.06 0.01 0.00 0.00 0.00 0.00 0.00 0.00 0.00 0.00 0.00 0.00 0.00 0.00 0.00 0.01 0.00 0.01 0.02 0.00 0.01 0.01 0.00 0.01 0.04 0.01 0.00 0.01 0.03 0.00 0.00 0.00 0.00 0.00 0.00 0.00 0.01
0.00 0.00 0.00 0.00 0.00 0.00 0.00 0.06 0.07 0.09 0.06 0.06 0.05 0.01 0.01 0.00 0.00 0.00 0.00 0.00 0.00 0.00 0.00 0.00 0.00 0.00 0.01 0.03 0.02 0.04 0.02 0.00 0.00 0.00 0.01 0.03 0.05 0.05 0.02 0.02 0.04 0.01 0.00 0.00 0.00 0.02 0.03 0.01 0.05
0.00 0.00 0.00 0.00 0.00 0.00 0.00 0.00 0.01 0.01 0.10 0.02 0.00 0.00 0.00 0.00 0.00 0.00 0.00 0.00 0.00 0.00 0.00 0.00 0.00 0.00 0.00 0.03 0.02 0.06 0.01 0.02 0.01 0.02 0.02 0.01 0.02 0.03 0.03 0.05 0.06 0.00 0.00 0.02 0.03 0.00 0.03 0.02 0.04
0.00 0.00 0.00 0.00 0.00 0.00 0.00 0.00 0.01 0.09 0.03 0.02 0.00 0.00 0.00 0.00 0.00 0.00 0.00 0.00 0.00 0.00 0.00 0.00 0.00 0.00 0.00 0.01 0.04 0.05 0.05 0.04 0.02 0.06 0.06 0.00 0.01 0.01 0.01 0.03 0.03 0.00 0.00 0.01 0.00 0.00 0.03 0.03 0.06
0.00 0.00 0.00 0.00 0.00 0.00 0.00 0.00 0.01 0.05 0.02 0.01 0.00 0.00 0.00 0.00 0.00 0.00 0.00 0.00 0.00 0.00 0.00 0.00 0.00 0.00 0.00 0.00 0.01 0.02 0.03 0.02 0.02 0.03 0.01 0.00 0.01 0.00 0.00 0.04 0.01 0.00 0.00 0.00 0.00 0.01 0.00 0.00 0.00
0.00 0.00 0.00 0.01 0.00 0.00 0.00 0.00 0.01 0.07 0.07 0.01 0.00 0.00 0.00 0.00 0.00 0.00 0.00 0.00 0.00 0.00 0.00 0.00 0.00 0.00 0.00 0.00 0.00 0.00 0.00 0.00 0.04 0.01 0.00 0.00 0.00 0.00 0.00 0.01 0.00 0.01 0.00 0.00 0.00 0.00 0.00 0.00 0.00
0.00 0.00 0.00 0.00 0.00 0.00 0.00 0.00 0.00 0.06 0.04 0.00 0.00 0.00 0.00 0.00 0.00 0.00 0.00 0.00 0.00 0.00 0.00 0.00 0.00 0.00 0.00 0.00 0.00 0.00 0.00 0.00 0.00 0.00 0.00 0.00 0.00 0.00 0.00 0.00 0.00 0.00 0.00 0.00 0.00 0.00 0.00 0.00 0.00
0.00 0.00 0.00 0.00 0.00 0.00 0.00 0.01 0.00 0.01 0.01 0.07 0.00 0.00 0.00 0.00 0.00 0.00 0.00 0.00 0.00 0.00 0.00 0.00 0.00 0.00 0.00 0.00 0.00 0.00 0.00 0.00 0.00 0.00 0.00 0.00 0.00 0.00 0.00 0.00 0.00 0.00 0.00 0.00 0.00 0.00 0.00 0.00 0.00
0.00 0.00 0.00 0.00 0.00 0.00 0.05 0.07 0.00 0.00 0.03 0.11 0.01 0.00 0.00 0.00 0.00 0.00 0.00 0.00 0.00 0.00 0.00 0.00 0.00 0.00 0.00 0.00 0.00 0.00 0.00 0.00 0.00 0.00 0.00 0.00 0.00 0.00 0.00 0.00 0.00 0.00 0.00 0.00 0.00 0.00 0.00 0.00 0.00
0.00 0.00 0.00 0.00 0.00 0.00 0.04 0.04 0.00 0.00 0.02 0.05 0.02 0.00 0.00 0.00 0.00 0.00 0.00 0.00 0.00 0.00 0.00 0.00 0.00 0.00 0.00 0.00 0.00 0.00 0.00 0.00 0.01 0.03 0.06 0.00 0.02 0.00 0.00 0.00 0.00 0.00 0.00 0.00 0.00 0.00 0.00 0.00 0.00
0.00 0.00 0.00 0.00 0.00 0.00 0.08 0.03 0.01 0.00 0.00 0.00 0.02 0.00 0.00 0.00 0.00 0.00 0.00 0.00 0.00 0.00 0.00 0.00 0.00 0.00 0.00 0.00 0.00 0.00 0.00 0.00 0.03 0.02 0.02 0.00 0.01 0.01 0.00 0.00 0.00 0.00 0.00 0.00 0.00 0.00 0.00 0.00 0.00
0.00 0.00 0.00 0.00 0.00 0.00 0.04 0.02 0.01 0.00 0.00 0.00 0.02 0.00 0.00 0.00 0.00 0.00 0.00 0.00 0.00 0.00 0.00 0.00 0.00 0.00 0.00 0.00 0.00 0.00 0.00 0.00 0.04 0.02 0.02 0.00 0.01 0.00 0.00 0.00 0.00 0.00 0.00 0.00 0.00 0.00 0.00 0.00 0.00
0.00 0.00 0.00 0.00 0.00 0.02 0.05 0.01 0.00 0.00 0.00 0.00 0.00 0.01 0.00 0.00 0.00 0.00 0.00 0.00 0.00 0.00 0.00 0.00 0.00 0.00 0.00 0.00 0.00 0.00 0.00 0.00 0.01 0.03 0.00 0.00 0.01 0.00 0.00 0.00 0.00 0.00 0.00 0.00 0.00 0.00 0.00 0.00 0.00
0.00 0.00 0.00 0.00 0.00 0.01 0.01 0.00 0.00 0.00 0.01 0.00 0.00 0.02 0.00 0.00 0.00 0.00 0.00 0.00 0.00 0.00 0.00 0.00 0.00 0.00 0.00 0.00 0.00 0.00 0.00 0.00 0.03 0.00 0.00 0.00 0.02 0.00 0.00 0.00 0.00 0.00 0.00 0.00 0.00 0.00 0.00 0.00 0.00
0.00 0.00 0.00 0.00 0.00 0.00 0.00 0.00 0.00 0.00 0.00 0.00 0.00 0.02 0.00 0.00 0.00 0.00 0.00 0.00 0.00 0.00 0.00 0.00 0.00 0.00 0.00 0.00 0.00 0.00 0.00 0.00 0.01 0.00 0.00 0.02 0.07 0.04 0.01 0.01 0.00 0.00 0.00 0.00 0.00 0.00 0.00 0.00 0.00
0.00 0.00 0.00 0.00 0.00 0.00 0.00 0.00 0.00 0.00 0.00 0.01 0.03 0.01 0.02 0.01 0.00 0.00 0.00 0.00 0.00 0.00 0.00 0.00 0.00 0.00 0.00 0.00 0.00 0.00 0.00 0.00 0.00 0.00 0.00 0.06 0.10 0.07 0.04 0.03 0.02 0.00 0.00 0.00 0.00 0.00 0.00 0.00 0.00
0.00 0.00 0.00 0.00 0.00 0.00 0.00 0.00 0.00 0.00 0.00 0.00 0.01 0.03 0.01 0.00 0.00 0.00 0.00 0.00 0.00 0.00 0.00 0.00 0.00 0.00 0.00 0.00 0.00 0.00 0.00 0.02 0.01 0.00 0.00 0.01 0.05 0.08 0.08 0.01 0.00 0.00 0.00 0.00 0.00 0.00 0.00 0.00 0.00
0.00 0.00 0.00 0.00 0.00 0.00 0.00 0.00 0.00 0.00 0.00 0.01 0.04 0.08 0.06 0.04 0.00 0.00 0.00 0.00 0.00 0.00 0.00 0.00 0.00 0.00 0.00 0.00 0.00 0.00 0.00 0.01 0.01 0.00 0.00 0.01 0.01 0.01 0.03 0.01 0.00 0.00 0.00 0.00 0.00 0.00 0.00 0.00 0.00
0.00 0.00 0.00 0.00 0.00 0.00 0.00 0.00 0.00 0.00 0.00 0.00 0.01 0.04 0.06 0.05 0.02 0.00 0.00 0.01 0.00 0.00 0.00 0.00 0.00 0.00 0.00 0.00 0.00 0.00 0.00 0.00 0.00 0.00 0.00 0.01 0.02 0.00 0.00 0.00 0.00 0.00 0.01 0.00 0.00 0.00 0.00 0.00 0.00
0.00 0.00 0.00 0.00 0.00 0.00 0.00 0.00 0.00 0.00 0.00 0.00 0.00 0.00 0.00 0.00 0.00 0.00 0.00 0.00 0.00 0.00 0.00 0.00 0.00 0.00 0.00 0.00 0.00 0.00 0.00 0.00 0.00 0.01 0.01 0.00 0.00 0.00 0.00 0.00 0.00 0.03 0.02 0.00 0.00 0.00 0.00 0.00 0.00
0.00 0.00 0.00 0.00 0.00 0.00 0.00 0.00 0.00 0.00 0.00 0.00 0.00 0.00 0.00 0.00 0.00 0.00 0.00 0.00 0.00 0.00 0.00 0.00 0.00 0.00 0.00 0.00 0.00 0.00 0.00 0.00 0.00 0.00 0.00 0.00 0.00 0.00 0.00 0.00 0.00 0.06 0.03 0.00 0.00 0.00 0.00 0.00 0.00
0.00 0.00 0.00 0.00 0.00 0.00 0.00 0.00 0.00 0.00 0.00 0.00 0.00 0.00 0.00 0.00 0.00 0.00 0.00 0.00 0.01 0.00 0.00 0.00 0.00 0.00 0.00 0.00 0.00 0.00 0.00 0.00 0.00 0.00 0.00 0.00 0.00 0.00 0.00 0.00 0.00 0.00 0.02 0.01 0.00 0.00 0.00 0.00 0.00
0.00 0.00 0.00 0.00 0.00 0.00 0.00 0.00 0.00 0.00 0.00 0.00 0.00 0.00 0.00 0.00 0.00 0.00 0.00 0.00 0.03 0.06 0.04 0.01 0.00 0.00 0.00 0.00 0.00 0.00 0.00 0.00 0.00 0.00 0.00 0.00 0.00 0.00 0.00 0.00 0.00 0.00 0.00 0.00 0.00 0.00 0.00 0.01 0.00
0.00 0.00 0.00 0.00 0.00 0.00 0.00 0.00 0.00 0.00 0.00 0.00 0.00 0.00 0.00 0.00 0.00 0.00 0.00 0.00 0.01 0.05 0.04 0.02 0.00 0.00 0.00 0.00 0.00 0.00 0.00 0.00 0.00 0.00 0.00 0.00 0.00 0.00 0.00 0.00 0.00 0.00 0.00 0.01 0.03 0.01 0.00 0.00 0.00
0.00 0.00 0.00 0.00 0.00 0.00 0.00 0.00 0.00 0.00 0.00 0.00 0.00 0.00 0.00 0.00 0.00 0.00 0.00 0.00 0.00 0.01 0.03 0.03 0.01 0.00 0.00 0.00 0.00 0.00 0.00 0.00 0.00 0.00 0.00 0.00 0.00 0.00 0.00 0.00 0.00 0.00 0.00 0.00 0.02 0.03 0.00 0.00 0.00
MSLP
1012.26 1012.33 1012.61 1012.76 1013.00 1012.51 1012.04 1011.61 1011.13 1010.90 1011.01 1011.22 1011.78 1012.00 1012.30 1012.75 1013.34 1014.40 1014.81 1015.15 1015.35 1015.98 1016.47 1016.83 1017.21 1017.35 1017.48 1017.63 1017.75 1017.91 1018.07 1018.17 1018.34 1018.50 1018.66 1018.78 1018.87 1019.00 1019.03 1019.14 1019.01 1019.15 1019.15 1019.16 1019.28 1019.28 1019.27 1019.35 1019.30
1012.13 1012.49 1012.68 1012.43 1012.43 1012.07 1011.90 1011.48 1010.80 1010.47 1010.64 1011.31 1011.45 1011.87 1012.46 1013.31 1014.06 1014.63 1014.86 1015.28 1015.45 1015.97 1016.43 1016.83 1017.37 1017.44 1017.56 1017.81 1017.99 1018.26 1018.43 1018.52 1018.64 1018.77 1018.79 1018.96 1019.03 1019.19 1019.30 1019.40 1019.43 1019.39 1019.51 1019.57 1019.59 1019.57 1019.57 1019.57 1019.66
1012.21 1012.20 1012.19 1012.00 1012.13 1011.77 1011.57 1011.37 1010.90 1010.60 1010.79 1011.14 1011.62 1012.26 1012.99 1013.92 1014.61 1014.82 1015.02 1015.37 1015.63 1016.20 1016.64 1016.98 1017.44 1017.62 1017.84 1017.94 1018.11 1018.37 1018.59 1018.70 1018.78 1018.87 1018.93 1019.08 1019.21 1019.33 1019.49 1019.57 1019.71 1019.73 1019.77 1019.84 1019.82 1019.82 1019.80 1019.86 1019.91
1011.99 1012.17 1012.15 1011.85 1011.63 1012.13 1011.95 1011.44 1010.82 1010.99 1011.28 1011.58 1011.96 1012.97 1013.98 1014.22 1014.63 1014.95 1015.51 1015.60 1015.91 1016.34 1016.72 1017.25 1017.49 1017.67 1017.89 1018.13 1018.33 1018.51 1018.68 1018.83 1018.88 1019.07 1019.25 1019.30 1019.40 1019.48 1019.71 1019.94 1019.91 1020.00 1020.08 1020.09 1020.12 1020.23 1020.22 1020.27 1020.33
1011.99 1011.83 1011.52 1011.32 1011.76 1012.10 1012.11 1011.80 1011.11 1011.30 1011.46 1011.83 1012.23 1013.67 1014.39 1014.87 1014.96 1015.35 1015.56 1015.86 1015.98 1016.31 1016.76 1017.21 1017.59 1017.69 1017.98 1018.35 1018.48 1018.68 1018.81 1018.96 1019.23 1019.41 1019.42 1019.44 1019.57 1019.67 1019.91 1020.01 1020.12 1020.26 1020.25 1020.35 1020.51 1020.56 1020.52 1020.49 1020.54
1011.45 1011.60 1011.17 1010.93 1011.51 1012.15 1012.29 1012.36 1011.83 1011.82 1012.20 1012.39 1012.79 1013.48 1014.67 1015.19 1015.38 1015.80 1015.90 1016.00 1016.12 1016.45 1016.79 1017.31 1017.80 1017.97 1018.21 1018.48 1018.72 1018.94 1019.01 1019.25 1019.42 1019.53 1019.63 1019.77 1019.81 1019.96 1020.16 1020.28 1020.29 1020.40 1020.51 1020.63 1020.79 1020.80 1020.72 1020.53 1020.72
1010.99 1011.09 1010.95 1010.83 1011.25 1012.01 1012.53 1012.78 1012.60 1012.34 1012.34 1012.57 1012.78 1013.49 1015.00 1015.31 1015.75 1016.08 1016.21 1016.49 1016.43 1016.71 1017.05 1017.42 1017.70 1018.09 1018.38 1018.75 1018.88 1019.19 1019.23 1019.51 1019.68 1019.77 1019.92 1020.05 1020.19 1020.30 1020.40 1020.59 1020.60 1020.66 1020.80 1020.91 1020.97 1021.08 1021.07 1021.03 1021.12
1010.98 1010.85 1010.77 1010.63 1010.85 1011.78 1012.26 1012.62 1013.15 1012.65 1012.71 1012.45 1012.62 1013.31 1014.41 1015.23 1015.81 1016.35 1016.54 1016.75 1016.91 1016.97 1017.25 1017.56 1017.94 1018.06 1018.33 1018.67 1019.02 1019.31 1019.46 1019.60 1019.88 1020.12 1020.15 1020.29 1020.43 1020.61 1020.79 1020.94 1020.97 1020.98 1021.06 1021.19 1021.29 1021.33 1021.36 1021.39 1021.45
1010.84 1010.53 1010.35 1010.27 1010.55 1011.35 1011.86 1012.33 1012.78 1012.85 1012.69 1012.37 1012.67 1012.95 1013.80 1015.23 1015.73 1016.30 1016.62 1017.04 1017.37 1017.37 1017.41 1017.60 1017.95 1018.29 1018.52 1018.74 1019.13 1019.52 1019.77 1019.89 1020.07 1020.34 1020.35 1020.47 1020.58 1020.80 1020.71 1021.15 1021.15 1021.28 1021.38 1021.44 1021.54 1021.54 1021.61 1021.68 1021.71
1010.52 1010.20 1010.15 1010.14 1010.50 1011.20 1011.90 1012.18 1012.75 1012.82 1012.65 1013.14 1013.27 1013.85 1014.65 1015.50 1015.86 1016.13 1016.53 1016.87 1017.44 1017.61 1017.63 1017.78 1018.02 1018.33 1018.63 1018.75 1019.23 1019.57 1019.69 1019.89 1020.17 1020.46 1020.55 1020.73 1020.97 1020.98 1020.95 1021.27 1021.38 1021.55 1021.63 1021.69 1021.87 1021.89 1021.90 1021.73 1021.62
1010.51 1009.97 1009.98 1010.19 1010.62 1011.29 1011.76 1012.37 1012.78 1012.77 1012.58 1012.61 1013.18 1013.82 1014.61 1015.32 1015.78 1016.13 1016.46 1016.77 1017.33 1017.87 1017.89 1018.02 1018.39 1018.57 1018.70 1019.10 1019.28 1019.54 1019.76 1020.07 1020.46 1020.57 1020.75 1020.97 1021.07 1021.21 1021.15 1021.48 1021.51 1021.77 1022.11 1021.71 1021.85 1021.85 1021.81 1021.95 1021.83
1010.30 1009.95 1009.86 1010.13 1010.69 1011.07 1011.54 1012.30 1012.43 1012.67 1012.36 1012.18 1013.09 1013.67 1014.23 1014.95 1015.56 1016.05 1016.41 1016.89 1017.42 1017.95 1018.10 1018.29 1018.56 1018.81 1019.07 1019.27 1019.47 1019.79 1019.96 1020.15 1020.33 1020.71 1020.95 1021.14 1021.10 1021.34 1021.53 1021.57 1021.89 1022.11 1022.25 1022.27 1022.21 1022.02 1022.15 1022.05 1022.09
1010.13 1009.66 1009.61 1009.96 1010.58 1010.82 1011.33 1011.66 1012.05 1012.41 1012.40 1012.90 1013.43 1014.21 1014.47 1014.88 1015.61 1016.19 1016.53 1017.01 1017.64 1017.98 1018.21 1018.45 1018.73 1018.94 1019.26 1019.61 1019.78 1019.95 1020.09 1020.23 1020.54 1020.87 1021.13 1021.31 1021.29 1021.46 1021.65 1021.88 1021.96 1022.21 1022.33 1022.32 1022.33 1022.27 1022.13 1022.14 1021.98
1009.49 1009.36 1009.33 1009.68 1010.15 1010.48 1010.87 1011.17 1011.71 1012.03 1012.57 1013.20 1013.69 1014.10 1014.59 1014.80 1015.33 1016.11 1016.56 1016.81 1017.37 1017.86 1018.20 1018.49 1018.85 1019.08 1019.34 1019.56 1019.99 1020.17 1020.27 1020.48 1020.66 1020.87 1021.25 1021.55 1021.54 1021.67 1021.75 1021.99 1022.10 1022.28 1022.40 1022.49 1022.48 1022.43 1022.19 1022.08 1021.97
1009.28 1009.07 1009.19 1009.44 1009.87 1010.13 1010.59 1011.26 1011.29 1011.55 1012.43 1013.17 1013.70 1014.18 1014.69 1015.01 1015.42 1015.85 1016.13 1016.47 1016.97 1017.57 1018.05 1018.60 1018.81 1019.17 1019.50 1019.64 1019.91 1020.24 1020.39 1020.46 1020.65 1020.96 1021.16 1021.47 1021.71 1021.80 1022.01 1022.11 1022.20 1022.31 1022.55 1022.66 1022.65 1022.59 1022.46 1022.21 1022.05
1008.94 1008.84 1008.65 1009.68 1009.76 1009.93 1010.53 1010.28 1010.80 1011.64 1012.09 1012.88 1013.41 1013.91 1014.41 1014.88 1015.24 1015.63 1016.02 1016.30 1016.84 1017.31 1017.92 1018.55 1018.69 1019.07 1019.54 1019.71 1019.91 1020.10 1020.37 1020.48 1020.47 1020.95 1021.20 1021.27 1021.67 1021.89 1022.06 1022.10 1022.20 1022.45 1022.57 1022.59 1022.61 1022.43 1022.44 1022.40 1022.32
1008.84 1008.19 1008.56 1009.34 1009.62 1009.79 1010.17 1010.07 1010.97 1011.61 1012.05 1012.65 1013.22 1013.55 1014.11 1014.55 1014.96 1015.28 1015.73 1016.13 1016.58 1017.21 1017.69 1018.25 1018.69 1019.05 1019.48 1019.75 1019.91 1020.13 1020.43 1020.51 1020.63 1020.98 1021.15 1021.39 1021.59 1021.73 1022.00 1021.95 1022.28 1022.59 1022.47 1022.53 1022.48 1022.45 1022.43 1022.44 1022.41
1008.24 1008.31 1008.58 1008.75 1009.37 1009.55 1009.65 1010.00 1010.93 1011.70 1011.97 1012.52 1013.12 1013.35 1013.64 1014.19 1014.50 1015.00 1015.43 1015.93 1016.44 1017.04 1017.66 1018.19 1018.56 1018.97 1019.42 1019.68 1020.03 1020.05 1020.35 1020.39 1020.53 1020.75 1021.01 1021.30 1021.53 1021.72 1021.92 1021.94 1022.29 1022.49 1022.45 1022.53 1022.47 1022.47 1022.46 1022.55 1022.64
1008.45 1008.34 1008.40 1008.69 1008.99 1009.45 1009.29 1009.71 1010.43 1011.29 1011.72 1012.18 1012.74 1012.99 1013.27 1013.67 1014.21 1014.61 1015.14 1015.76 1016.39 1016.93 1017.51 1017.98 1018.49 1018.90 1019.23 1019.64 1019.82 1019.98 1019.92 1020.28 1020.51 1020.69 1021.03 1021.24 1021.49 1021.62 1021.89 1021.73 1022.13 1022.27 1022.44 1022.50 1022.46 1022.48 1022.57 1022.57 1022.84
1008.56 1008.40 1008.59 1008.85 1009.05 1009.28 1009.38 1009.64 1010.22 1010.77 1011.23 1011.71 1012.12 1012.68 1013.06 1013.36 1013.90 1014.45 1014.81 1015.53 1016.08 1016.51 1017.17 1017.77 1018.34 1018.84 1019.14 1019.37 1019.57 1019.66 1019.75 1020.04 1020.26 1020.50 1020.87 1021.07 1021.22 1021.39 1021.53 1021.67 1021.85 1022.16 1022.26 1022.49 1022.46 1022.56 1022.53 1022.67 1022.92
1008.83 1008.56 1008.71 1008.74 1009.09 1009.33 1009.36 1009.64 1010.20 1011.07 1011.49 1011.76 1012.15 1012.58 1012.79 1013.06 1013.37 1013.94 1014.51 1015.12 1015.71 1016.25 1016.86 1017.37 1018.07 1018.67 1019.05 1019.36 1019.51 1019.70 1019.95 1020.12 1020.17 1020.42 1020.60 1020.87 1020.95 1021.11 1021.33 1021.51 1021.74 1022.03 1022.09 1022.20 1022.52 1022.71 1022.80 1022.59 1022.96
1008.59 1008.87 1008.88 1008.97 1008.99 1008.83 1009.51 1009.35 1010.65 1011.24 1011.81 1012.35 1012.73 1012.82 1012.64 1012.83 1013.08 1013.27 1013.87 1014.55 1015.17 1015.55 1016.29 1017.11 1017.79 1018.38 1019.00 1019.41 1019.51 1019.38 1019.37 1019.63 1019.59 1019.99 1020.36 1020.44 1020.77 1021.06 1021.29 1021.46 1021.67 1021.98 1021.97 1022.28 1022.47 1022.52 1022.78 1022.79 1022.59
1008.72 1008.89 1009.01 1009.01 1008.99 1009.18 1009.49 1009.71 1011.40 1011.84 1012.45 1012.98 1012.92 1012.91 1013.02 1012.86 1012.75 1012.80 1013.23 1013.71 1014.43 1015.17 1015.76 1016.57 1017.43 1018.11 1018.59 1019.15 1019.46 1019.38 1019.31 1019.46 1019.79 1020.00 1020.31 1020.56 1020.81 1020.91 1021.11 1021.53 1021.76 1022.01 1022.10 1022.28 1022.48 1022.77 1022.89 1022.77 1022.65
1009.06 1009.25 1009.44 1009.47 1009.18 1008.97 1009.58 1010.09 1012.01 1012.90 1013.77 1013.43 1013.28 1012.87 1012.78 1012.73 1012.55 1012.37 1012.83 1013.35 1013.94 1014.71 1015.34 1016.07 1016.93 1017.50 1018.20 1018.75 1019.21 1019.46 1019.35 1019.53 1019.63 1019.89 1019.95 1020.27 1020.70 1020.73 1021.08 1021.34 1021.67 1021.87 1022.04 1022.24 1022.28 1022.49 1022.78 1022.85 1022.94
1009.23 1009.03 1009.03 1009.09 1009.03 1008.89 1010.26 1010.79 1013.53 1014.21 1014.56 1014.59 1014.07 1013.56 1013.02 1012.37 1012.15 1012.05 1012.17 1012.66 1013.41 1014.14 1014.84 1015.41 1016.33 1016.93 1017.55 1018.19 1018.69 1019.12 1019.32 1019.53 1019.62 1019.77 1019.79 1019.84 1020.12 1020.41 1020.77 1021.03 1021.40 1021.63 1021.95 1022.21 1022.29 1022.45 1022.65 1022.77 1022.86
1009.50 1009.05 1008.50 1008.28 1008.85 1009.34 1010.75 1011.74 1014.25 1015.01 1015.23 1015.09 1014.82 1014.30 1013.46 1012.60 1011.64 1011.33 1011.53 1011.93 1012.65 1013.43 1014.28 1015.02 1015.47 1016.20 1017.05 1017.63 1018.03 1018.65 1019.02 1019.14 1019.34 1019.51 1019.57 1019.77 1019.83 1019.95 1020.25 1020.65 1021.02 1021.36 1021.69 1022.03 1022.31 1022.20 1022.36 1022.57 1022.83
1010.57 1010.19 1010.33 1009.55 1010.32 1009.82 1011.17 1013.05 1014.29 1015.09 1015.45 1015.57 1015.55 1015.06 1014.13 1012.49 1011.12 1010.79 1011.29 1011.77 1012.16 1012.90 1013.63 1014.40 1015.07 1015.64 1016.29 1016.75 1017.56 1018.18 1018.65 1018.90 1018.94 1019.29 1019.41 1019.58 1019.91 1019.89 1020.18 1020.41 1020.71 1021.09 1021.37 1021.53 1021.91 1022.09 1022.27 1022.53 1022.77
1011.51 1011.81 1011.03 1010.17 1009.86 1009.95 1012.03 1013.35 1014.72 1015.77 1016.16 1016.25 1016.20 1015.70 1014.93 1013.73 1011.57 1011.35 1011.31 1011.78 1012.21 1012.97 1013.63 1014.18 1014.60 1015.03 1015.41 1016.19 1016.67 1017.31 1017.98 1018.48 1018.73 1019.11 1019.25 1019.26 1019.36 1019.71 1020.01 1020.28 1020.42 1020.75 1021.02 1021.33 1021.65 1021.89 1021.98 1022.31 1022.51
1012.97 1012.44 1012.12 1011.22 1011.09 1010.35 1011.93 1014.49 1016.47 1017.41 1017.86 1017.74 1017.64 1017.17 1016.36 1015.36 1014.53 1013.76 1013.09 1012.17 1012.48 1013.10 1013.47 1014.04 1014.48 1014.87 1015.24 1015.87 1016.35 1016.80 1017.24 1017.87 1018.46 1018.63 1019.00 1019.18 1019.22 1019.30 1019.77 1020.08 1020.37 1020.61 1020.80 1021.00 1021.44 1021.72 1021.87 1022.09 1022.25
1014.82 1014.29 1013.57 1011.86 1012.28 1012.30 1012.52 1016.01 1017.62 1018.35 1018.80 1018.69 1018.58 1018.24 1017.65 1016.93 1016.29 1015.75 1015.30 1015.00 1014.52 1014.19 1014.27 1014.35 1014.41 1014.51 1014.78 1015.37 1016.01 1016.52 1016.95 1017.35 1017.90 1018.19 1018.38 1018.82 1019.08 1019.01 1019.24 1019.68 1020.08 1020.32 1020.52 1020.77 1021.00 1021.25 1021.43 1021.71 1021.85
Thickness
5781 5781 5779 5769 5750 5745 5737 5751 5767 5763 5765 5778 5777 5771 5768 5769 5759 5748 5767 5768 5767 5761 5758 5755 5753 5751 5750 5748 5747 5745 5742 5741 5739 5738 5736 5735 5735 5735 5736 5736 5738 5737 5738 5739 5739 5740 5740 5740 5741
5782 5781 5777 5767 5744 5739 5741 5760 5759 5774 5781 5782 5783 5777 5769 5759 5764 5760 5764 5770 5768 5764 5759 5757 5753 5753 5752 5749 5747 5744 5741 5739 5737 5735 5734 5734 5734 5734 5734 5735 5736 5737 5737 5738 5739 5739 5740 5741 5740
5782 5784 5769 5763 5747 5745 5749 5761 5768 5778 5783 5780 5775 5779 5770 5758 5761 5763 5770 5771 5768 5764 5759 5758 5755 5753 5751 5750 5748 5745 5742 5739 5738 5736 5734 5733 5733 5734 5734 5734 5735 5735 5736 5737 5738 5739 5738 5740 5739
5780 5777 5773 5760 5756 5753 5753 5764 5778 5775 5780 5781 5779 5760 5767 5772 5767 5771 5769 5769 5768 5764 5761 5758 5757 5754 5752 5750 5748 5746 5743 5740 5738 5736 5734 5734 5733 5734 5733 5733 5734 5735 5736 5737 5738 5738 5738 5739 5739
5780 5774 5761 5763 5755 5756 5763 5770 5784 5774 5776 5776 5778 5754 5754 5767 5773 5772 5771 5769 5767 5767 5762 5758 5757 5757 5753 5750 5748 5746 5744 5741 5739 5736 5736 5736 5735 5735 5733 5733 5734 5734 5735 5735 5735 5736 5738 5740 5740
5770 5771 5761 5758 5759 5757 5762 5765 5776 5775 5769 5770 5767 5763 5757 5769 5768 5767 5770 5770 5767 5767 5763 5759 5756 5756 5754 5751 5748 5745 5744 5741 5739 5738 5736 5735 5735 5735 5734 5734 5733 5733 5734 5734 5735 5736 5738 5741 5742
5769 5765 5761 5766 5761 5754 5751 5761 5764 5769 5769 5764 5775 5759 5758 5763 5767 5767 5768 5767 5766 5765 5764 5760 5758 5756 5753 5750 5748 5745 5743 5741 5739 5738 5737 5736 5736 5735 5735 5733 5733 5734 5734 5735 5736 5737 5738 5740 5741
5774 5769 5760 5766 5761 5752 5762 5760 5763 5769 5762 5784 5783 5759 5754 5763 5768 5766 5766 5766 5765 5765 5764 5761 5758 5758 5755 5752 5748 5745 5743 5742 5741 5739 5738 5737 5736 5734 5734 5734 5733 5735 5735 5736 5737 5738 5739 5739 5740
5782 5763 5756 5764 5764 5757 5768 5764 5769 5774 5772 5782 5783 5778 5777 5771 5769 5765 5763 5761 5762 5765 5766 5763 5761 5757 5755 5752 5749 5745 5743 5742 5742 5739 5739 5738 5737 5736 5737 5735 5735 5735 5735 5736 5737 5738 5739 5739 5740
5770 5763 5762 5776 5776 5764 5764 5763 5757 5766 5771 5766 5770 5773 5772 5767 5765 5762 5760 5759 5759 5761 5765 5765 5763 5759 5755 5753 5749 5746 5746 5744 5742 5741 5741 5739 5737 5737 5737 5737 5736 5736 5735 5736 5736 5737 5738 5739 5740
5769 5764 5774 5775 5775 5770 5763 5755 5758 5762 5765 5774 5767 5769 5770 5767 5766 5765 5765 5765 5762 5762 5764 5766 5763 5760 5756 5753 5750 5749 5747 5744 5742 5742 5741 5740 5739 5738 5738 5737 5738 5737 5736 5738 5738 5738 5738 5738 5739
5759 5774 5779 5776 5776 5770 5762 5764 5762 5764 5772 5787 5781 5780 5776 5769 5766 5765 5765 5764 5763 5763 5763 5764 5763 5761 5756 5754 5751 5749 5747 5746 5744 5742 5741 5740 5741 5740 5738 5738 5738 5737 5737 5737 5738 5739 5738 5738 5738
5759 5772 5781 5780 5777 5775 5774 5767 5768 5766 5777 5781 5779 5775 5773 5772 5768 5767 5769 5768 5763 5761 5764 5764 5762 5762 5758 5754 5752 5750 5749 5747 5744 5741 5739 5740 5740 5741 5740 5739 5739 5739 5739 5739 5739 5740 5740 5740 5741
5771 5775 5779 5780 5776 5778 5771 5770 5770 5772 5777 5775 5773 5773 5772 5774 5771 5767 5768 5769 5767 5764 5765 5765 5763 5761 5760 5757 5754 5751 5750 5748 5745 5744 5741 5739 5740 5740 5741 5740 5741 5741 5740 5740 5741 5741 5742 5743 5745
5771 5765 5772 5774 5776 5774 5779 5756 5761 5779 5776 5770 5771 5772 5771 5772 5772 5768 5772 5772 5773 5769 5768 5764 5764 5762 5759 5759 5756 5753 5751 5750 5748 5745 5743 5742 5742 5742 5741 5742 5742 5742 5742 5742 5742 5743 5745 5746 5748
5761 5766 5760 5764 5772 5777 5772 5761 5772 5778 5778 5771 5773 5773 5771 5771 5772 5774 5776 5777 5776 5774 5769 5767 5766 5764 5759 5759 5758 5756 5754 5753 5754 5749 5746 5746 5744 5744 5744 5744 5744 5744 5744 5744 5744 5747 5749 5750 5751
5754 5753 5755 5754 5772 5772 5771 5765 5771 5779 5777 5771 5772 5775 5772 5772 5775 5778 5778 5777 5778 5775 5773 5770 5768 5765 5762 5760 5759 5758 5756 5755 5755 5751 5750 5748 5747 5748 5747 5748 5746 5745 5746 5746 5747 5749 5752 5752 5754
5744 5747 5753 5753 5763 5768 5771 5768 5770 5771 5776 5770 5770 5774 5774 5772 5774 5778 5779 5779 5779 5777 5775 5773 5772 5769 5763 5761 5759 5761 5759 5759 5757 5756 5753 5752 5750 5751 5750 5751 5749 5748 5749 5749 5750 5752 5754 5754 5755
5750 5751 5749 5758 5770 5764 5772 5774 5775 5775 5775 5772 5770 5773 5774 5774 5779 5782 5781 5779 5777 5776 5776 5775 5771 5771 5769 5763 5761 5761 5764 5764 5761 5758 5756 5755 5755 5755 5754 5755 5753 5752 5752 5752 5753 5755 5755 5756 5756
5744 5743 5743 5753 5764 5764 5764 5768 5776 5780 5779 5777 5774 5772 5773 5777 5777 5779 5782 5779 5778 5776 5776 5775 5773 5772 5772 5769 5766 5767 5768 5768 5765 5762 5760 5759 5759 5759 5758 5758 5757 5755 5755 5755 5756 5756 5756 5757 5757
5734 5738 5738 5745 5753 5761 5764 5761 5767 5773 5778 5781 5780 5778 5778 5777 5777 5778 5780 5778 5779 5777 5776 5776 5773 5772 5773 5771 5768 5766 5766 5768 5769 5766 5766 5763 5763 5763 5763 5761 5759 5758 5757 5758 5758 5758 5757 5757 5758
5726 5741 5743 5741 5743 5743 5759 5751 5755 5765 5764 5766 5768 5770 5775 5778 5782 5784 5783 5781 5780 5781 5781 5779 5776 5774 5772 5771 5768 5769 5770 5767 5774 5772 5770 5768 5766 5765 5763 5763 5762 5761 5760 5759 5759 5759 5760 5760 5759
5728 5738 5737 5740 5739 5742 5746 5753 5742 5758 5750 5753 5763 5766 5768 5774 5779 5783 5784 5785 5784 5785 5783 5780 5778 5776 5774 5772 5770 5771 5772 5775 5774 5774 5771 5770 5768 5768 5766 5764 5763 5761 5761 5761 5761 5759 5760 5764 5763
5733 5726 5725 5728 5733 5727 5741 5748 5730 5733 5732 5747 5758 5768 5772 5773 5777 5784 5787 5787 5788 5788 5786 5783 5779 5779 5776 5775 5773 5769 5772 5773 5775 5774 5774 5775 5771 5770 5768 5767 5764 5763 5763 5762 5763 5762 5762 5763 5764
5724 5720 5703 5704 5708 5720 5727 5738 5712 5727 5733 5738 5748 5759 5769 5779 5780 5781 5785 5788 5787 5788 5788 5789 5782 5780 5780 5778 5776 5774 5773 5774 5775 5775 5775 5777 5777 5775 5773 5771 5768 5766 5765 5764 5764 5764 5764 5764 5765
5716 5723 5714 5694 5700 5720 5720 5714 5700 5722 5732 5739 5748 5756 5766 5775 5785 5790 5789 5790 5789 5789 5788 5786 5788 5783 5782 5780 5780 5778 5777 5778 5779 5780 5779 5778 5780 5781 5778 5775 5772 5770 5768 5766 5765 5766 5766 5766 5767
5700 5705 5709 5705 5695 5721 5715 5705 5714 5722 5724 5731 5734 5745 5755 5776 5787 5794 5793 5791 5790 5789 5790 5788 5785 5785 5784 5785 5782 5780 5779 5779 5780 5781 5782 5780 5778 5780 5778 5778 5776 5773 5772 5771 5768 5768 5768 5768 5768
5695 5692 5698 5705 5688 5697 5690 5694 5693 5699 5708 5720 5725 5735 5748 5763 5787 5789 5792 5791 5790 5786 5784 5785 5787 5786 5786 5784 5786 5785 5782 5781 5781 5781 5782 5782 5782 5779 5779 5777 5777 5776 5775 5773 5771 5771 5770 5770 5771
5675 5680 5682 5698 5693 5702 5692 5683 5686 5685 5692 5701 5710 5721 5732 5745 5755 5764 5775 5790 5788 5786 5784 5782 5783 5782 5783 5782 5783 5784 5785 5782 5780 5781 5781 5782 5783 5782 5779 5779 5777 5777 5777 5775 5774 5773 5773 5773 5773
5654 5655 5664 5692 5677 5681 5704 5670 5675 5680 5685 5696 5702 5710 5719 5729 5738 5746 5752 5756 5766 5774 5777 5777 5779 5782 5783 5783 5779 5779 5780 5782 5781 5781 5782 5781 5780 5781 5782 5779 5778 5778 5778 5778 5778 5777 5777 5775 5775